Regional Weather Roundup
Issued by NWS Charleston, SC

Current Version | Previous Version | Text Only | Print | Product List | Glossary Off
Versions: 1 2 3 4 5 6 7 8 9 10 11 12 13 14 15 16 17 18 19 20 21 22 23 24 25 26 27 28 29 30 31 32 33 34 35 36 37 38 39 40 41 42 43 44 45 46 47 48 49 50

000
ASUS42 KCHS 261427
RWRCHS

REGIONAL WEATHER ROUNDUP
NATIONAL WEATHER SERVICE CHARLESTON SC
1000 AM EDT MON JUN 26 2017

NOTE: "FAIR" INDICATES FEW OR NO CLOUDS BELOW 12,000 FEET WITH NO
SIGNIFICANT WEATHER AND/OR OBSTRUCTIONS TO VISIBILITY.

NOT ALL STATIONS ARE QUALITY CONTROLLED. USE DATA WITH CAUTION...
ESPECIALLY DEWPOINT OBSERVATIONS.

SCZ027-030-031-034>040-042>050-261500-
...SOUTHEAST SOUTH CAROLINA...

CITY           SKY/WX    TMP DP  RH WIND       PRES   REMARKS
N CHARLESTON   PTSUNNY   78  67  68 NE13      30.09R
WATERFRONT PRK   N/A     77  74  91 NE12      30.07R
JOHNS ISLAND     N/A     79  73  83 NE7       30.09R
PINOPOLIS        N/A     77  70  78 NE12      30.03R
MONCKS CORNER  FAIR      79  66  65 E13       30.10R
SUMMERVILLE    FAIR      79  68  69 N9        30.10S
BEAUFORT MCAS  MOSUNNY   81  72  74 NE10      30.09R
BEAUFORT ARPT  FAIR      79  72  78 NE12      30.08S
HILTON HEAD IS PTSUNNY   81  75  83 N8        30.09R
WALTERBORO     SUNNY     79  64  61 NE10      30.11S
ALLENDALE      PTSUNNY   79  66  65 VRB6      30.11R

...SOUTHERN MIDLANDS AND PEE DEE...

CITY           SKY/WX    TMP DP  RH WIND       PRES   REMARKS
GEORGETOWN     FAIR      75  66  73 NE10      30.10S
KINGSTREE      CLOUDY    77  55  47 NE5       30.12R
ORANGEBURG     CLOUDY    79  60  52 NE13G18   30.12R
BARNWELL       PTSUNNY   79  63  57 NE10      30.13R
AIKEN          FAIR      77  59  53 NE12G18   30.18R
MANNING        FAIR      79  64  61 NE14G20   30.12R
COLUMBIA       MOSUNNY   81  53  37 NE8       30.13R
SUMTER         MOSUNNY   78  55  44 NE12      30.11R
FLORENCE       SUNNY     79  55  43 N12       30.13R
MYRTLE BEACH   MOSUNNY   79  63  57 MISG      30.11R
N MYRTLE BEACH CLOUDY    79  60  52 NE13      30.10R

$$

GAZ063-065-086>088-099>101-113>116-118-119-134>141-150-261500-
...SOUTHEAST GEORGIA...

CITY           SKY/WX    TMP DP  RH WIND       PRES   REMARKS
SAVANNAH ARPT  PTSUNNY   78  73  84 NE7       30.09S
HUNTER AAF     MOSUNNY   79  73  83 CALM      30.06S
FORT STEWART   CLOUDY    79  73  83 NE6       30.07S
STATESBORO     CLOUDY    80  70  72 NE6       30.10S
SYLVANIA       SUNNY     81  71  72 E8        30.11S
CLAXTON        PTSUNNY   79  73  81 CALM      30.10S

...CSRA...CENTRAL AND FAR SOUTHEAST GEORGIA...

CITY           SKY/WX    TMP DP  RH WIND       PRES   REMARKS
THOMSON        PTSUNNY   76  61  60 E8        30.21R
AUGUSTA-BUSH   CLOUDY   N/A N/A N/A MISG      30.13R
AUGUSTA-DANIEL CLOUDY    79  58  48 NE8       30.15R
SWAINSBORO     FAIR      81  68  65 NE6       30.13R
VIDALIA        PTSUNNY   81  75  83 NE7       30.11S
EASTMAN        FAIR      81  64  55 NE6       30.13F
HAZLEHURST     CLOUDY    76  76 100 NE3       30.10S
ALMA           PTSUNNY   80  72  76 N3        30.09S
WAYCROSS       SUNNY     85  79  83 CALM      30.08F HX  98
JESUP          CLOUDY    81  72  74 CALM      30.09S
BAXLEY         CLOUDY    77  77 100 N6        30.10R
BRUNSWICK      CLOUDY    81  77  89 CALM      30.09S
SAINT SIMONS   CLOUDY    80  74  81 W5        30.08R

$$

SCZ027-028-034-036>038-045-046-048>050-GAZ119-141-261500-
...LAKE AND SUPPLEMENTAL COASTAL OBSERVATIONS...

STATION/POSITION TIME  TEMP    WIND        PRES    WAVE   SWELL
                       AIR SEA DIR/SP/G            HT/PER HT/PER/DIR
                 (UTC) (F)     (DEG/KT/KT) (MB)    (FT/S) (FT/S/D)
WINYAH BAY       1330   76      40/  9     1019.0S
LAKE MURRAY      1420   78      20/  3/  6 1020.0
ACE BASIN NERRS  1330   78      20/  4     1019.0S
FORT PULASKI     1400   78 84   20/  3/  4 1019.0
SAPELO ISLAND    1400   80        CALM     1019.0

$$

ANZ835-935-AMZ111-154-330-350-352-354-370-450-454-472-261500-
...C-MAN AND BUOY OBSERVATIONS...

STATION/POSITION TIME  TEMP    WIND        PRES    WAVE   SWELL
                       AIR SEA DIR/SP/G            HT/PER HT/PER/DIR
                 (UTC) (F)     (DEG/KT/KT) (MB)    (FT/S) (FT/S/D)
BUOY 41004       1410   77 81  110/ 10/ 14 1017.3
BUOY 41008       1350   79 82  300/  6/  8 1018.0R   2/ 8   2/110/ 8
FOLLY BEACH CMAN 1400   77      20/ 10/ 13 1019.1R
CAPERS NEARSHORE 1408   84 83   40/ 16/ 21 1017.9S
FRIPP NEARSHORE  1408   78 83   20/ 10/ 14 1018.1R


STATION/POSITION TIME  TEMP    WIND        PRES    WAVE   SWELL
                       AIR SEA DIR/SP/G            HT/PER HT/PER/DIR
                 (UTC) (F)     (DEG/KT/KT) (MB)    (FT/S) (FT/S/D)
5E ST. MARYS GA  1400      80                N/A     2/ 8
FRYING PAN BUOY  1410   77 80   70/ 10/ 12 1018.5
BUOY 41025       1250   78 79   20/ 10/ 10 1017.9    2/ 8   2/140/ 8
CAPE LOOKOUT NC  1400   78      30/  4/  7 1018.8R
BUOY 41002       1350   81 81  200/ 12/ 14 1018.7F   3/ 6   2/230/ 6
BUOY 41010       1410   83 83  190/ 10/ 14 1018.8
ST AUGUSTINE FL  1400   77 77   50/  5/  5 1018.8R


$$



USA.gov is the U.S. government's official web portal to all federal, state and local government web resources and services.